Regional Weather Roundup
Issued by NWS

Home | Current Version | Previous Version | Text Only | Print | Product List | Glossary On
Versions: 1 2 3 4 5 6 7 8 9 10 11 12 13 14 15 16 17 18 19 20 21 22 23 24 25 26 27 28 29 30 31 32 33 34 35 36 37 38 39 40 41 42 43 44 45 46 47 48 49 50
000
ASUS45 KABQ 221110
RWRNM
NEW MEXICO REGIONAL WEATHER ROUNDUP
NATIONAL WEATHER SERVICE ALBUQUERQUE NM
400 AM MST SUN JAN 22 2017

NOTE: "FAIR" MEANS FEW OR NO CLOUDS BELOW 12,000 FEET AGL WITH NO
       SIGNIFICANT WEATHER OR OBSTRUCTIONS TO VISION.

      THIS PRODUCT IS RELEASED AS TWO VERSIONS.  ONE VERSION NEAR
      THE TOP OF THE HOUR CONTAINING PRELIMINARY DATA FROM ALBUQUERQUE
      AND OTHER STATIONS.  A FINAL VERSION WITH ADDITIONAL DATA IS
      ISSUED ABOUT 10 MINUTES AFTER THE HOUR.

NMZ501-503-504-510>518-221200-
NORTHWEST PLATEAU/NORTHCENTRAL MOUNTAINS

CITY           SKY/WX    TMP DP  RH WIND       PRES   REMARKS
FARMINGTON     FAIR      29  23  78 W13       30.01R WCI  19
LOS ALAMOS     FAIR      28  15  58 N9        29.92S WCI  20
SANTA FE       FAIR      30  21  69 N6        29.93R WCI  24
TAOS           CLOUDY    18   9  68 CALM      29.93R
ANGEL FIRE     LGT SNOW  21  17  83 W7        29.88R WCI  12

$$
NMZ402-403-502-505>509-221200-
WESTCENTRAL MOUNTAINS/SOUTHWEST MOUNTAINS

CITY           SKY/WX    TMP DP  RH WIND       PRES   REMARKS
GALLUP         FAIR      16  14  92 W5        30.07S WCI   9
GRANTS         FAIR      22  16  78 CALM      30.07R
SILVER CITY    FAIR      29  26  87 NW12      30.08F WCI  19

$$
NMZ407-409-411-412-221200-
SOUTHERN DESERTS

CITY           SKY/WX    TMP DP  RH WIND       PRES   REMARKS
DEMING         FAIR      36  29  75 W10       30.08R WCI  28
LAS CRUCES     FAIR      34  28  81 W10       30.08R WCI  26
HOLLOMAN AFB   FAIR      33  24  69 NE3       30.07R
ALAMOGORDO     FAIR      36  23  60 N9        30.05R WCI  29
T OR C         FAIR      35  20  54 NW12      30.04R WCI  27

$$
NMZ519>523-221200-
CENTRAL VALLEYS/CENTRAL HIGHLANDS

CITY           SKY/WX    TMP DP  RH WIND       PRES   REMARKS
ALBUQUERQUE    MOCLDY    35  21  56 SW5       30.02R WCI  31
DOUBLE EAGLE   FAIR      30  20  67 W12       30.00R WCI  20
MORIARTY ARPT  FAIR      31  19  62 W21G29    29.94R WCI  18
CLINES CORNERS FAIR      24  18  77 W23       29.89R WCI   9
BELEN          FAIR      32  20  62 W9        30.03R WCI  24
SOCORRO        FAIR      36  19  51 W23G35    30.00S WCI  24

$$
NMZ524>526-539-540-221200-
SOUTHCENTRAL MOUNTAINS

CITY           SKY/WX    TMP DP  RH WIND       PRES   REMARKS
RUIDOSO        FAIR      28  16  59 NW23G38   29.89R WCI  14

$$
NMZ527>531-221200-
NORTHEAST HIGHLANDS/NORTHEAST PLAINS

CITY           SKY/WX    TMP DP  RH WIND       PRES   REMARKS
LAS VEGAS      FAIR      27  15  61 N16       29.83R WCI  15
RATON          FAIR      28  19  69 NW13      29.78R WCI  17
CLAYTON        FAIR      33  31  92 NW20      29.75R WCI  21

$$
NMZ532>537-221200-
EASTCENTRAL PLAINS

CITY           SKY/WX    TMP DP  RH WIND       PRES   REMARKS
TUCUMCARI      FAIR      33  25  72 W10       29.79R WCI  25
CANNON AFB     FAIR      36  27  69 NW14      29.79R WCI  27
CLOVIS AIRPORT FAIR      32  23  69 W12       29.78R WCI  23

$$
NMZ028-029-538-221200-
SOUTHEAST PLAINS

CITY           SKY/WX    TMP DP  RH WIND       PRES   REMARKS
ROSWELL        FAIR      45  18  34 NW26G39   29.79R
ARTESIA        FAIR      43  19  39 NW15G25   29.85R
CARLSBAD       FAIR      43  21  41 W23       29.86R


$$




USA.gov is the U.S. government's official web portal to all federal, state and local government web resources and services.